Regional Weather Roundup
Issued by NWS

Home | Current Version | Previous Version | Graphics & Text | Print | Product List | Glossary On
Versions: 1 2 3 4 5 6 7 8 9 10 11 12 13 14 15 16 17 18 19 20 21 22 23 24 25 26 27 28 29 30 31 32 33 34 35 36 37 38 39 40 41 42 43 44 45 46 47 48 49 50
000
ASUS43 KLOT 280506
RWRIL

ILLINOIS REGIONAL WEATHER ROUNDUP
NATIONAL WEATHER SERVICE CHICAGO/ROMEOVILLE IL
1200 AM CDT MON JUL 28 2014

NOTE: "FAIR" INDICATES FEW OR NO CLOUDS BELOW 12,000 FEET WITH NO
SIGNIFICANT WEATHER AND/OR OBSTRUCTIONS TO VISIBILITY.

* THESE STATIONS ARE NOT UNDER NWS QUALITY CONTROL. THEY ALSO MAY NOT
  REPORT WEATHER SUCH AS PRECIPITATION OR FOG.

ILZ001-002-007-009-015-016-024-280600-
NORTHWEST ILLINOIS

CITY           SKY/WX    TMP DP  RH WIND       PRES   REMARKS
MOLINE         MOCLDY    68  60  75 NW9       29.97R
STERLING*      CLEAR     66  57  72 N9        29.96R
SAVANNA*       PTCLDY    68  58  71 N9        29.96S
$$

ILZ003-004-008-010-011-017-018-280600-
NORTH CENTRAL ILLINOIS

CITY           SKY/WX    TMP DP  RH WIND       PRES   REMARKS
ROCKFORD       MOCLDY    68  59  73 N22       29.98R
FREEPORT*      CLOUDY    63  58  86 N7        29.99S
ROCHELLE*      CLOUDY    65  60  81 N9        29.95R
DE KALB*       MOCLDY    63  58  83 N12       29.94S
PERU*          CLEAR     63  59  86 NW8       29.94R
$$

ILZ005-006-012>014-019>023-280600-
NORTHEAST ILLINOIS

CITY           SKY/WX    TMP DP  RH WIND       PRES   REMARKS
CHICAGO-OHARE  MOCLDY    65  55  70 N20       29.91R
CHICAGO-MIDWAY MOCLDY    67  58  72 N17G26    29.90R
AURORA         MOCLDY    66  59  78 N7        29.93R
LANSING*       CLOUDY    64  57  80 N9G28     29.90R
JOLIET*        PTCLDY    65  58  77 N14       29.92R
WAUKEGAN       CLOUDY    64  52  64 N12G21    29.91R
DUPAGE AIRPORT MOCLDY    65  58  78 N13       29.92R
KANKAKEE*      CLOUDY    64  60  86 NW3       29.89R
WHEELING       CLOUDY    66  56  70 N15G21    29.93R
MORRIS*        CLEAR     66  61  84 N5        29.91R
ROMEOVILLE*    CLOUDY    65  58  78 NE16      29.91R
NORTHERLY ISL    N/A     65  56  72 N16         N/A
$$

LMZ740>746-280600-
SOUTHERN LAKE MICHIGAN

STATION/POSITION SKY/WX   TEMP    WIND        PRES    VSBY  WAVE
                          AIR SEA DIR/SP/G                  HT/PER
                          (F)     (DEG/KT/KT) (MB)    (MI)  (FT/S)
SOUTHERN BUOY              62 61  340/ 23/ 29 1010.8R         7/ 7
WAUKEGAN HARBOR            65     350/ 14/ 23   N/A
HARRISON CRIB              65     350/ 31/ 37   N/A
BURNHAM HARBOR             65     320/ 17/ 24   N/A
CALUMET HARBOR             63     330/ 12/ 22 1011.4R
BURNS HARBOR               65     360/ 22/ 27 1012.2R
MICHIGAN CITY              64     330/ 30/ 36   N/A
MICHIGAN CITY 6N           65 69  350/ 23/ 33   N/A           9/ 6
ST. JOSEPH                 63 64  360/ 19/ 25   N/A           9/ 6
$$

ILZ025>027-034>036-040-047-049-050-058-095>099-280600-
WEST-CENTRAL ILLINOIS

CITY           SKY/WX    TMP DP  RH WIND       PRES   REMARKS
QUINCY         CLEAR     65  58  78 NW8       30.02S
GALESBURG*     CLEAR     64  61  90 W7        29.98S
MACOMB*        CLEAR     62  60  92 W8        30.01S
JACKSONVILLE*  CLEAR     68  60  75 NW8       30.00S
PITTSFIELD*    CLEAR     68  58  69 NW7       30.02S
$$

ILZ028>032-037-038-041>044-048-051>054-059>061-280600-
CENTRAL ILLINOIS

CITY           SKY/WX    TMP DP  RH WIND       PRES   REMARKS
PONTIAC        PTCLDY    64  63  94 NW6       29.91R
DECATUR        CLEAR     69  59  70 NW12G22   29.94S
PEORIA         CLEAR     68  59  73 NW8       29.95S
LACON*         PTCLDY    66  59  78 NW8       29.94R
LINCOLN*       CLEAR     66  60  78 W3        29.92S
SPRINGFIELD    CLEAR     68  59  73 NW8       29.96F
TAYLORVILLE    CLEAR     64  59  82 W7        29.96S
$$

ILZ033-039-045-046-055>057-062-063-280600-
EAST-CENTRAL ILLINOIS

CITY           SKY/WX    TMP DP  RH WIND       PRES   REMARKS
CHAMPAIGN      CLEAR     63  60  90 W9        29.91F
DANVILLE*      MOCLDY    65  59  82 W8        29.86S
RANTOUL*       CLEAR     65  59  79 W8        29.91S
MATTOON        CLEAR     65  59  81 W13       29.91F
PARIS*         CLEAR     64  60  88 NW6       29.90S
$$

ILZ079-100>102-280600-
SOUTHWEST ILLINOIS

CITY           SKY/WX    TMP DP  RH WIND       PRES   REMARKS
ALTON          CLEAR     70  58  66 NW9G16    29.99S
BELLEVILLE     CLEAR     71  58  63 W8        29.97R
CAHOKIA*       CLEAR     74  58  57 NW17      29.99R
SPARTA*        CLEAR     70  55  60 NW7       29.99R
$$

ILZ064>066-069>071-074>076-080>082-084>086-088>090-092>094-280600-
SOUTH-CENTRAL ILLINOIS

CITY           SKY/WX    TMP DP  RH WIND       PRES   REMARKS
CARBONDALE     CLEAR     72  57  59 NW9       29.97R
CAIRO*         CLEAR     78  60  54 N8        29.96R
EFFINGHAM*     CLEAR     69  55  60 NW13G18   29.94R
MARION         CLEAR     75  59  57 NW6       29.97R
MT. VERNON     CLEAR     72  55  56 NW3       29.96R
CENTRALIA*     CLEAR     70  56  62 NW13      29.96S
SALEM*         CLEAR    N/A N/A N/A NW12      29.96S
METROPOLIS*    CLEAR     75  56  52 N3        29.95R
$$

ILZ067-068-072-073-078-083-087-091-280600-
SOUTHEAST ILLINOIS

CITY           SKY/WX    TMP DP  RH WIND       PRES   REMARKS
LAWRENCEVILLE  CLEAR     69  59  70 NW10      29.91S
FLORA*         CLEAR     68  58  68 NW8       29.94S
FAIRFIELD*     CLEAR     72  61  68 NW7       29.93S
HARRISBURG*    CLEAR     73  58  59 N9G18     29.96R
ROBINSON*      CLEAR     70  61  72 NW10G16   29.91S
CARMI*         CLEAR     72  63  73 NW5       29.93R
$$

ABBREVIATIONS USED IN REMARKS
   TC - TEMPERATURE IN CELSIUS
  WCI - WIND CHILL INDEX
   HX - HEAT INDEX
  VSB - VISIBILITY
$$



USA.gov is the U.S. government's official web portal to all federal, state and local government web resources and services.